This demonstration page uses our WeatherBlox Daily Observations layout. Learn more.

Left ArrowRight Arrow

Hourly Observations for April 9, 2016

Temp ( °F °C ) Dew Point ( °F °C ) Humidity (%) Winds ( mph kmh ) Pressure ( in mb ) Visibility ( mi km ) Precip ( " mm )
12:15 am 00:15 Clear 37 3 21 -6 52 52 E 10 17 30.21 1023 10 16 0.00 0.00
12:35 am 00:35 Clear 36 2 21 -6 56 56 E 9 15 30.24 1024 10 16 0.00 0.00
12:55 am 00:55 Clear 36 2 21 -6 56 56 E 12 19 30.27 1025 10 16 0.00 0.00
1:15 am 01:15 Clear 36 2 21 -6 56 56 E 13 20 30.27 1025 10 16 0.00 0.00
1:35 am 01:35 Clear 36 2 19 -7 52 52 E 12 19 30.27 1025 10 16 0.00 0.00
1:55 am 01:55 Clear 34 1 19 -7 56 56 E 10 17 30.27 1025 10 16 0.00 0.00
2:15 am 02:15 Clear 34 1 19 -7 56 56 E 10 17 30.24 1024 10 16 0.00 0.00
2:35 am 02:35 Clear 34 1 18 -8 51 51 E 12 19 30.24 1024 10 16 0.00 0.00
2:55 am 02:55 Clear 32 0 18 -8 55 55 ESE 9 15 30.24 1024 10 16 0.00 0.00
3:15 am 03:15 Clear 32 0 18 -8 55 55 ESE 10 17 30.24 1024 10 16 0.00 0.00
3:35 am 03:35 Clear 30 -1 18 -8 59 59 E 9 15 30.24 1024 10 16 0.00 0.00
3:55 am 03:55 Clear 30 -1 18 -8 59 59 ESE 10 17 30.24 1024 10 16 0.00 0.00
4:15 am 04:15 Clear 30 -1 18 -8 59 59 E 9 15 30.24 1024 10 16 0.00 0.00
4:35 am 04:35 Clear 30 -1 16 -9 55 55 ESE 10 17 30.24 1024 10 16 0.00 0.00
4:55 am 04:55 Clear 30 -1 16 -9 55 55 ESE 10 17 30.24 1024 10 16 0.00 0.00
5:15 am 05:15 Clear 30 -1 16 -9 55 55 ESE 10 17 30.18 1022 10 16 0.00 0.00
5:35 am 05:35 Clear 30 -1 16 -9 55 55 SE 10 17 30.18 1022 10 16 0.00 0.00
5:55 am 05:55 Clear 28 -2 14 -10 55 55 SE 9 15 30.21 1023 10 16 0.00 0.00
6:15 am 06:15 Clear 28 -2 16 -9 59 59 SE 9 15 30.21 1023 10 16 0.00 0.00
6:35 am 06:35 Clear 28 -2 14 -10 55 55 SE 9 15 30.21 1023 10 16 0.00 0.00
6:55 am 06:55 Clear 28 -2 14 -10 55 55 SE 12 19 30.21 1023 10 16 0.00 0.00
7:15 am 07:15 Sunny 28 -2 14 -10 55 55 SE 12 19 30.21 1023 10 16 0.00 0.00
7:35 am 07:35 Sunny 28 -2 14 -10 55 55 SE 12 19 30.21 1023 10 16 0.00 0.00
7:55 am 07:55 Sunny 30 -1 14 -10 51 51 SE 12 19 30.18 1022 10 16 0.00 0.00
8:15 am 08:15 Sunny 30 -1 14 -10 51 51 SE 14 22 30.18 1022 10 16 0.00 0.00
8:35 am 08:35 Sunny 32 0 14 -10 47 47 SE 17 28 30.18 1022 10 16 0.00 0.00
8:55 am 08:55 Sunny 34 1 12 -11 41 41 SSE 20 31 30.18 1022 10 16 0.00 0.00
9:15 am 09:15 Sunny 36 2 12 -11 38 38 SE 16 26 30.12 1020 10 16 0.00 0.00
9:35 am 09:35 Sunny 37 3 12 -11 35 35 SE 20 31 30.12 1020 10 16 0.00 0.00
9:55 am 09:55 Sunny 37 3 12 -11 35 35 SE 24 39 30.09 1019 10 16 0.00 0.00
10:15 am 10:15 Sunny 39 4 12 -11 33 33 SSE 21 33 30.09 1019 10 16 0.00 0.00
10:35 am 10:35 Sunny 43 6 16 -9 34 34 SSE 21 33 30.06 1018 10 16 0.00 0.00
10:55 am 10:55 Sunny 43 6 16 -9 34 34 SE 24 39 30.03 1017 10 16 0.00 0.00
11:15 am 11:15 Sunny 45 7 16 -9 31 31 SE 24 39 30.03 1017 10 16 0.00 0.00
11:35 am 11:35 Sunny 46 8 18 -8 32 32 SSE 24 39 30.03 1017 10 16 0.00 0.00
11:55 am 11:55 Sunny 48 9 18 -8 29 29 SSE 22 35 29.97 1015 10 16 0.00 0.00
12:15 pm 12:15 Sunny 50 10 19 -7 30 30 SSE 24 39 29.97 1015 10 16 0.00 0.00
12:35 pm 12:35 Sunny 52 11 19 -7 28 28 S 23 37 29.94 1014 10 16 0.00 0.00
12:55 pm 12:55 Sunny 52 11 21 -6 30 30 SSE 22 35 29.94 1014 10 16 0.00 0.00
1:15 pm 13:15 Sunny 54 12 23 -5 30 30 SSE 22 35 29.88 1012 10 16 0.00 0.00
1:35 pm 13:35 Sunny 55 13 25 -4 31 31 S 22 35 29.85 1011 10 16 0.00 0.00
1:55 pm 13:55 Sunny 55 13 25 -4 31 31 SSE 22 35 29.85 1011 10 16 0.00 0.00
2:15 pm 14:15 Sunny 57 14 27 -3 31 31 S 26 43 29.85 1011 10 16 0.00 0.00
2:35 pm 14:35 Sunny 57 14 27 -3 31 31 S 24 39 29.83 1010 10 16 0.00 0.00
2:55 pm 14:55 Sunny 61 16 30 -1 31 31 S 25 41 29.80 1009 10 16 0.00 0.00
3:15 pm 15:15 Sunny 61 16 30 -1 31 31 S 24 39 29.80 1009 10 16 0.00 0.00
3:35 pm 15:35 Sunny 63 17 30 -1 30 30 S 25 41 29.77 1008 10 16 0.00 0.00
3:55 pm 15:55 Sunny 63 17 32 0 32 32 SSE 24 39 29.77 1008 10 16 0.00 0.00
4:15 pm 16:15 Sunny 64 18 34 1 32 32 S 22 35 29.71 1006 10 16 0.00 0.00
4:35 pm 16:35 Sunny 66 19 34 1 30 30 S 20 31 29.71 1006 10 16 0.00 0.00
4:55 pm 16:55 Sunny 64 18 36 2 34 34 S 18 30 29.68 1005 10 16 0.00 0.00
5:15 pm 17:15 Sunny 66 19 36 2 32 32 S 20 31 29.68 1005 10 16 0.00 0.00
5:35 pm 17:35 Sunny 68 20 37 3 33 33 S 23 37 29.65 1004 10 16 0.00 0.00
5:55 pm 17:55 Sunny 68 20 37 3 33 33 S 23 37 29.65 1004 10 16 0.00 0.00
6:15 pm 18:15 Sunny 70 21 39 4 33 33 SSE 18 30 29.59 1002 10 16 0.00 0.00
6:35 pm 18:35 Sunny 70 21 39 4 33 33 SSE 21 33 29.59 1002 10 16 0.00 0.00
6:55 pm 18:55 Sunny 70 21 39 4 33 33 SSE 20 31 29.56 1001 10 16 0.00 0.00
7:15 pm 19:15 Sunny 70 21 41 5 35 35 SSE 20 31 29.56 1001 10 16 0.00 0.00
7:35 pm 19:35 Sunny 66 19 41 5 40 40 SSE 16 26 29.59 1002 10 16 0.00 0.00
7:55 pm 19:55 Sunny 66 19 41 5 40 40 SSE 15 24 29.56 1001 10 16 0.00 0.00
8:15 pm 20:15 Clear 64 18 41 5 43 43 SSE 14 22 29.56 1001 10 16 0.00 0.00
8:35 pm 20:35 Clear 63 17 41 5 45 45 SSE 13 20 29.56 1001 10 16 0.00 0.00
8:55 pm 20:55 Clear 61 16 41 5 48 48 SSE 12 19 29.56 1001 10 16 0.00 0.00
9:15 pm 21:15 Clear 61 16 43 6 52 52 SSE 15 24 29.56 1001 10 16 0.00 0.00
9:35 pm 21:35 Clear 61 16 43 6 52 52 SSE 16 26 29.56 1001 10 16 0.00 0.00
9:55 pm 21:55 Clear 61 16 43 6 52 52 SSE 15 24 29.53 1000 10 16 0.00 0.00
10:15 pm 22:15 Clear 63 17 43 6 49 49 S 18 30 29.53 1000 10 16 0.00 0.00
10:35 pm 22:35 Clear 63 17 45 7 52 52 S 18 30 29.53 1000 10 16 0.00 0.00
10:55 pm 22:55 Clear 63 17 45 7 52 52 S 17 28 29.53 1000 10 16 0.00 0.00
11:15 pm 23:15 Clear 61 16 45 7 55 55 S 17 28 29.53 1000 10 16 0.00 0.00
11:35 pm 23:35 Clear 61 16 45 7 55 55 S 18 30 29.53 1000 10 16 0.00 0.00
11:55 pm 23:55 Clear 61 16 45 7 55 55 S 16 26 29.53 1000 10 16 0.00 0.00

Powered by AerisWeather